FW4469 Weather Reports


Display with metric or nautical units.
time (UTC)temp
F
wind
direction
speed
MPH
gust
MPH
rain 1hr
in
rain 24hr
in
rain mn
in
humidity
%
barometer
mb
20260502183008 50 328 2.0 4.0 0.07 0.09 0.09 89 1012.7
20260502182003 51 324 2.0 4.0 0.07 0.09 0.09 86 1012.8
20260502181008 52 333 2.0 3.0 0.06 0.07 0.07 88 1012.8
20260502170222 55 334 3.0 4.0 0.01 0.01 0.01 83 1013.1
20260502164226 56 328 2.0 3.0 0.00 0.01 0.01 79 1013.3
20260502163008 56 329 2.0 4.0 0.00 0.00 0.00 75 1013.5
20260502162008 56 332 3.0 4.0 0.00 0.00 0.00 73 1013.4
20260502161008 57 325 3.0 4.0 0.00 0.01 0.00 73 1013.1
20260502152008 58 320 2.0 4.0 0.00 0.02 0.00 65 1013.9
20260502151008 58 317 2.0 5.0 0.00 0.03 0.00 61 1014.0
20260502150218 59 320 2.0 6.0 0.00 0.06 0.00 62 1014.3
20260502123008 59 326 4.0 9.0 0.00 0.10 0.00 65 1015.9
20260502122003 58 332 3.0 8.0 0.00 0.10 0.00 63 1015.9
20260502121003 57 334 3.0 6.0 0.00 0.10 0.00 62 1016.1
20260502115003 59 329 3.0 7.0 0.00 0.10 0.00 63 1016.4
20260502114008 58 328 3.0 9.0 0.00 0.10 0.00 63 1016.5
20260502113222 58 328 4.0 9.0 0.00 0.10 0.00 66 1016.4
20260502112003 56 334 4.0 10.0 0.00 0.10 0.00 71 1016.6
20260502111003 55 333 3.0 8.0 0.00 0.10 0.00 68 1016.9
20260502110008 55 334 3.0 8.0 0.00 0.10 0.00 71 1016.9
20260502105003 57 335 3.0 7.0 0.00 0.10 0.00 72 1016.9
20260502104222 57 324 4.0 8.0 0.00 0.10 0.00 70 1017.0
20260502103008 56 330 3.0 10.0 0.00 0.10 0.00 73 1017.2
20260502102218 55 327 4.0 8.0 0.00 0.10 0.00 77 1017.2
20260502101008 54 335 4.0 8.0 0.00 0.10 0.00 76 1016.8
20260502091008 51 337 3.0 7.0 0.00 0.10 0.00 93 1017.7
20260502071008 46 337 4.0 9.0 0.00 0.10 0.00 99 1017.7
20260502070223 45 330 3.0 9.0 0.00 0.10 0.00 99 1017.8
20260502065008 45 343 2.0 7.0 0.00 0.10 0.00 99 1017.9
20260502064008 44 332 2.0 8.0 0.00 0.10 0.00 99 1017.8
20260502063008 43 327 3.0 8.0 0.00 0.10 0.00 99 1017.8
20260502062003 44 325 3.0 11.0 0.00 0.10 0.00 99 1017.7
20260502061216 43 338 3.0 11.0 0.00 0.10 0.00 99 1017.7
20260502060003 43 341 4.0 8.0 0.00 0.10 0.00 99 1017.5
20260502055226 43 336 4.0 9.0 0.00 0.10 0.00 99 1017.6
20260502054008 42 346 4.0 9.0 0.00 0.10 0.00 99 1017.8
20260502053008 42 334 5.0 10.0 0.00 0.10 0.00 99 1017.6
20260502052003 42 314 3.0 10.0 0.00 0.10 0.00 99 1017.5
20260502051008 42 310 4.0 12.0 0.00 0.10 0.00 99 1017.5
20260502050008 42 319 4.0 9.0 0.00 0.10 0.00 99 1017.3
20260502045218 42 330 3.0 13.0 0.00 0.10 0.00 99 1017.4
20260502044003 42 339 5.0 11.0 0.00 0.10 0.00 99 1017.4
20260502043003 43 335 5.0 11.0 0.00 0.10 0.00 99 1017.7
20260502042008 43 330 5.0 11.0 0.00 0.10 0.00 99 1017.6
20260502041003 43 319 4.0 11.0 0.00 0.10 0.00 99 1017.6
20260502040008 43 327 5.0 11.0 0.00 0.10 0.00 99 1017.9
20260502035003 42 312 4.0 9.0 0.00 0.10 0.00 99 1017.8
20260502034003 42 337 6.0 14.0 0.00 0.10 0.00 99 1017.8
20260502033003 42 345 4.0 10.0 0.00 0.10 0.00 99 1017.7
20260502032008 43 316 5.0 12.0 0.00 0.10 0.00 99 1018.0
20260502031008 43 319 4.0 9.0 0.00 0.10 0.00 99 1017.8
20260502030008 44 328 3.0 6.0 0.00 0.10 0.00 99 1018.0
20260502025217 43 318 3.0 6.0 0.00 0.10 0.00 99 1018.1
20260502024008 43 336 3.0 6.0 0.00 0.10 0.00 99 1018.2
20260502023003 43 330 3.0 6.0 0.00 0.10 0.00 99 1018.0
20260502022008 43 319 3.0 5.0 0.00 0.10 0.00 99 1018.3
20260502021008 44 341 3.0 6.0 0.00 0.10 0.00 99 1018.3
20260502020008 44 337 3.0 5.0 0.00 0.10 0.00 99 1018.1
20260502015003 44 338 2.0 4.0 0.00 0.10 0.00 99 1018.4
20260502014008 44 328 3.0 6.0 0.00 0.10 0.00 99 1018.6
20260502013003 45 324 3.0 6.0 0.00 0.10 0.00 99 1018.6
20260502012003 45 319 4.0 9.0 0.00 0.10 0.00 99 1018.9
20260502011003 45 328 4.0 7.0 0.00 0.10 0.00 99 1019.0
20260502010216 45 338 3.0 6.0 0.00 0.10 0.00 99 1019.0
20260502005003 46 320 3.0 7.0 0.00 0.10 0.00 99 1019.2
20260502004003 45 321 3.0 6.0 0.00 0.10 0.00 99 1019.1
20260502003218 45 330 3.0 6.0 0.00 0.10 0.00 99 1019.2
20260502002008 46 327 3.0 6.0 0.00 0.10 0.00 99 1019.2
20260502001003 46 328 3.0 5.0 0.00 0.10 0.00 99 1019.3
20260502000222 46 328 3.0 6.0 0.00 0.10 0.00 98 1019.4
20260501235003 46 327 3.0 5.0 0.00 0.10 0.00 98 1019.3
20260501234003 47 332 2.0 4.0 0.00 0.10 0.00 99 1019.8
20260501233008 47 334 3.0 5.0 0.00 0.10 0.00 99 1019.8
20260501232008 48 346 2.0 4.0 0.00 0.10 0.00 99 1019.6
20260501231222 48 352 2.0 4.0 0.00 0.10 0.00 99 1019.5
20260501230008 48 341 1.0 3.0 0.00 0.10 0.00 99 1019.6
20260501225003 49 341 2.0 5.0 0.00 0.10 0.10 99 1019.5
20260501224003 49 338 2.0 4.0 0.00 0.10 0.10 99 1019.6
20260501223008 49 336 1.0 4.0 0.00 0.10 0.10 99 1019.5
20260501222008 48 337 1.0 3.0 0.00 0.10 0.10 98 1019.6
20260501221008 49 342 1.0 3.0 0.00 0.10 0.10 98 1019.5
20260501215013 49 335 1.0 3.0 0.00 0.10 0.10 98 1019.5
20260501214008 49 338 2.0 3.0 0.00 0.10 0.10 98 1019.6
20260501213003 50 335 1.0 3.0 0.00 0.10 0.10 98 1019.7
20260501212008 50 328 1.0 3.0 0.00 0.10 0.10 98 1019.6
20260501211003 50 333 2.0 3.0 0.00 0.10 0.10 98 1019.5
20260501210008 50 339 2.0 3.0 0.00 0.10 0.10 98 1019.5
20260501205004 50 338 2.0 3.0 0.00 0.10 0.10 97 1019.6
20260501204008 50 345 2.0 3.0 0.00 0.10 0.10 97 1019.6
20260501203013 50 343 2.0 4.0 0.00 0.10 0.10 97 1019.5
20260501202003 50 342 2.0 4.0 0.00 0.10 0.10 96 1019.7
20260501201008 51 336 1.0 3.0 0.00 0.10 0.10 96 1019.7
20260501200222 51 344 2.0 3.0 0.00 0.10 0.10 96 1019.7
20260501195003 52 330 2.0 6.0 0.00 0.10 0.10 96 1019.6
20260501194008 52 315 3.0 6.0 0.00 0.10 0.10 96 1019.6
20260501193008 52 318 3.0 6.0 0.00 0.10 0.10 95 1019.5
20260501192008 53 330 3.0 6.0 0.00 0.10 0.10 95 1019.5
20260501191222 53 322 3.0 6.0 0.00 0.10 0.10 95 1019.5
20260501190009 53 322 4.0 7.0 0.00 0.10 0.10 96 1019.2
20260501185222 53 320 4.0 7.0 0.00 0.10 0.10 95 1019.3
20260501184218 53 328 4.0 8.0 0.00 0.10 0.10 95 1019.3